リニア彗星

C/2011 J2 ( LINEAR )

English version
Home page
Updated on April 28, 2012

---------------------------------------------------------------------

・ プロフィール

発見日 2011年5月4日
発見光度 19.7等
発見者 Lincoln Laboratory Near-Earth Asteroid Research project

・ 写真集

・ 軌道要素

Epoch 2013 Dec. 14.0 TT = JDT 2456640.5
T 2013 Dec. 25.25292 TT                                 MPC
q   3.4432341            (2000.0)            P               Q
z  -0.0001780      Peri.   85.29374     +0.07043833     +0.97005690
 +/-0.0000071      Node   163.94714     +0.16358647     -0.24109686
e   1.0006129      Incl.  122.79904     +0.98401113     -0.02935841
From 190 observations 2011 Mar. 10-2012 Mar. 15, mean residual 0".5.

・ 星図

・ 光度変化

        m1 = 5.0 + 5 logΔ + 10.0 log r

---------------------------------------------------------------------

軌道要素はM.P.E.C. 2012-F11に掲載されたものです。
星図はステラナビゲータ Ver.8 (アストロアーツ) で作成したものです。
光度グラフはComet for Windowsで作成したものです。

---------------------------------------------------------------------

Copyright(C) Seiichi Yoshida (comet@aerith.net). All rights reserved.